View from above orbital plane
|
View from above satellite
|
Ground track
|
The orbit data is extracted from the following two-line orbital elements,
1 36089U 09061B 13138.17596535 .00000302 00000-0 88263-4 0 479
2 36089 098.1538 180.3458 0081767 312.0238 088.2974 14.48898076185747
| Epoch (UTC): | 18 May 2013 04:13:23 |
| Eccentricity: | 0.0081767 |
| inclination: | 98.1538° |
| perigee height: | 671 km |
| apogee height: | 787 km |
| right ascension of ascending node: | 180.3458° |
| argument of perigee: | 312.0238° |
| revolutions per day: | 14.48898076 |
| mean anomaly at epoch: | 88.2974° |
| orbit number at epoch: | 18574 |
The dashed part of the orbit path shows where the satellite is in the earth's shadow,
|
|